Theta_e
315 319 323 325 327 328 328 328 329 329 328 327 326 323 321 320 320 320 320 321 319 319 319 319 319 320 319 319 318 316 315 315 310 310 305 302 299 300 296 296 296 296 296
312 316 321 324 326 326 326 326 327 325 326 325 324 323 321 320 319 318 318 319 318 317 318 317 317 317 317 317 316 315 314 315 311 307 301 295 297 296 295 292 294 293 294
309 314 319 322 324 324 324 324 324 323 323 322 322 321 320 320 319 319 318 318 318 318 317 317 317 317 314 315 315 314 313 310 310 305 299 291 291 291 289 290 290 289 290
308 313 317 321 322 322 322 323 322 322 321 320 321 321 320 320 319 318 317 317 317 317 317 318 317 315 314 312 310 310 306 304 299 293 289 289 287 286 287 287 286 287 287
309 313 317 320 320 320 320 320 320 319 319 319 319 320 319 317 315 315 315 316 315 315 313 308 310 305 299 304 304 304 301 296 291 290 288 287 286 285 285 288 288 287 285
310 313 317 318 317 317 318 317 317 316 317 316 315 316 314 310 303 304 311 313 308 305 301 301 297 292 294 295 296 297 300 295 289 290 288 289 290 288 286 286 286 283 284
309 312 315 315 313 313 312 310 309 312 313 311 311 309 305 300 299 300 299 304 301 301 299 296 294 293 292 294 294 294 294 296 297 294 289 290 288 289 287 285 286 286 286
304 305 300 303 301 299 301 303 298 300 303 301 298 299 297 295 296 296 295 299 298 296 295 294 294 293 293 291 291 288 288 290 291 290 291 291 291 290 288 287 287 286 283
297 294 294 295 294 294 296 296 294 294 293 293 293 293 293 292 294 294 294 293 291 290 291 293 293 291 291 292 288 287 286 286 291 292 291 292 292 292 289 287 285 285 283
291 290 291 291 291 291 291 291 289 292 289 290 288 290 288 290 293 294 293 291 289 288 287 287 287 288 291 292 288 287 286 286 286 286 286 288 288 289 289 286 285 285 284
287 288 288 289 289 289 289 290 289 288 288 288 287 287 288 290 291 293 293 290 289 287 287 286 287 290 291 291 290 287 287 287 287 286 286 286 286 287 287 286 286 285 284
287 288 287 287 288 288 288 289 288 288 287 286 286 286 287 288 290 292 292 291 291 288 286 287 288 289 290 290 289 290 289 288 286 286 286 286 285 285 286 286 285 285 285
287 286 286 287 287 287 288 288 288 288 287 286 286 285 285 286 289 291 291 291 289 287 287 288 289 289 289 289 290 290 285 286 286 286 286 285 285 285 284 284 283 282 282
287 286 286 286 286 287 288 288 288 288 287 286 285 284 284 285 286 288 288 288 287 287 288 287 287 287 287 287 287 287 287 287 286 285 285 285 284 284 283 283 282 282 280
286 285 285 286 286 285 286 287 286 287 289 287 286 286 285 285 286 288 287 286 286 286 286 286 285 286 285 285 285 284 285 285 284 284 283 283 282 282 283 282 281 281 279
285 285 285 285 285 285 284 284 287 287 288 288 288 286 286 288 289 289 289 288 288 288 285 285 284 284 284 284 284 284 284 284 284 283 282 282 281 281 281 281 280 279 278
285 284 284 284 284 283 283 282 281 285 287 287 287 287 287 287 288 289 289 289 288 287 284 284 284 283 282 282 282 282 281 283 283 283 282 282 281 280 279 279 279 278 277
283 283 284 283 283 283 282 280 279 279 278 280 283 283 285 287 286 286 285 283 280 280 280 279 278 278 277 277 277 277 278 278 279 280 280 279 278 278 277 277 278 277 276
281 280 280 280 280 280 279 278 277 276 274 273 274 275 279 280 280 280 279 277 275 274 273 273 273 273 273 273 273 273 273 273 273 274 273 273 273 274 274 275 275 275 275
277 278 278 278 277 276 275 274 273 273 272 272 272 270 270 272 270 269 270 271 270 270 270 270 270 270 269 269 269 269 270 269 269 269 269 269 269 269 270 270 271 271 272
275 275 276 276 275 274 273 272 271 270 269 269 270 271 271 269 267 267 267 267 268 267 267 268 268 267 266 265 266 266 266 266 265 265 266 266 266 266 267 268 268 269 269
273 272 272 271 271 270 269 269 269 268 268 267 268 269 268 266 265 265 264 264 264 264 264 265 264 265 264 264 264 264 263 263 264 264 264 263 264 265 265 266 266 266 267
270 269 268 267 267 267 267 267 266 266 265 265 265 264 264 264 263 263 263 262 262 262 262 263 263 262 261 261 261 262 262 263 263 262 262 263 263 264 264 264 264 264 264
268 268 267 266 266 266 265 264 264 264 264 264 264 263 263 262 262 262 262 261 261 261 260 260 260 260 260 260 260 260 260 259 260 260 260 261 262 262 263 263 263 263 263
267 266 266 265 265 264 264 264 263 263 263 263 262 262 261 261 261 261 261 260 259 259 259 258 258 259 258 257 257 258 258 258 258 260 261 260 261 261 261 262 262 262 262
264 264 264 264 263 263 263 263 262 262 262 261 261 261 261 260 261 260 260 259 259 259 258 259 258 257 257 258 258 258 258 260 260 259 262 262 262 262 262 262 261 261 262
Wind_Speed
21 22 23 23 24 23 22 21 21 19 19 19 19 20 17 17 16 16 17 15 15 14 13 13 14 13 10 11 9 8 9 9 10 4 3 2 5 8 5 8 7 11 10
20 22 23 23 23 23 23 22 20 20 20 19 18 18 17 19 17 17 17 14 16 16 15 14 15 10 13 11 8 11 10 8 8 9 5 4 6 4 5 7 8 7 8
19 20 22 22 22 23 23 22 20 19 19 18 18 20 19 18 17 17 16 16 15 16 15 15 15 14 11 9 9 8 8 7 8 5 4 1 1 1 1 1 4 6 5
17 19 21 22 22 22 21 20 19 18 18 18 19 19 18 17 16 16 15 15 14 13 13 14 13 13 12 10 9 9 6 6 4 2 1 2 1 2 1 3 5 5 6
17 18 20 19 18 19 19 18 17 17 17 18 16 16 14 13 11 14 14 13 12 12 10 9 8 7 10 8 5 6 6 4 3 3 2 2 3 4 5 3 5 2 5
16 18 16 17 16 17 16 15 15 15 16 15 15 14 13 9 14 18 15 12 10 10 8 6 5 5 6 6 4 3 6 6 5 4 3 4 5 3 3 3 3 3 3
14 15 15 14 13 14 12 11 11 14 12 13 12 10 8 7 14 16 15 9 9 7 8 6 5 4 5 5 4 5 5 5 5 5 4 5 3 6 6 5 5 4 3
11 10 6 8 7 7 10 11 8 8 11 10 7 9 9 5 11 14 15 10 9 7 7 6 6 5 4 5 4 2 2 2 3 3 4 3 3 2 4 4 4 3 2
8 6 7 7 7 8 8 9 7 8 6 5 7 11 11 7 12 15 12 9 9 7 6 5 6 6 7 7 4 5 3 2 4 5 3 2 1 2 4 4 3 3 1
5 5 5 6 8 7 8 8 1 8 10 8 8 7 8 9 11 11 10 8 10 7 7 7 9 7 9 8 5 4 4 2 4 4 3 3 4 2 6 1 4 3 2
3 6 4 5 10 9 8 8 9 10 12 11 10 7 9 8 9 12 12 7 8 8 7 5 4 10 9 8 7 3 3 5 6 5 4 3 2 3 2 2 2 2 3
1 9 8 7 8 7 14 9 10 12 12 12 12 9 6 7 9 12 14 14 13 10 8 6 6 11 11 11 6 10 11 7 4 4 3 3 2 2 2 1 1 1 1
6 9 8 10 7 9 10 9 10 9 10 9 9 9 7 6 6 13 15 16 16 9 7 10 13 13 13 10 10 12 7 4 3 3 3 2 2 2 2 1 1 1 2
11 10 7 11 9 9 6 4 7 8 9 9 9 9 8 6 5 5 7 8 14 10 12 8 9 10 10 8 6 6 3 3 2 3 3 3 2 1 1 1 2 1 2
8 12 10 7 7 8 7 5 6 4 7 8 8 8 9 7 5 9 9 7 7 9 10 6 6 6 6 5 5 5 4 3 3 2 1 1 1 2 1 1 2 1 3
6 8 12 7 5 8 9 11 20 19 19 18 15 10 5 12 14 14 16 17 18 15 6 7 6 6 6 5 5 4 3 3 2 1 0 1 2 3 3 3 2 3 5
6 7 9 11 7 8 9 12 12 15 23 21 20 18 14 14 14 15 17 18 16 12 7 6 6 6 6 5 4 3 3 3 2 1 1 1 2 3 3 4 4 4 5
8 8 8 8 9 7 9 11 9 10 10 9 15 14 15 15 18 17 18 13 9 9 7 7 6 5 5 4 4 3 3 3 3 2 2 3 3 3 4 4 4 5 6
8 6 7 7 8 9 9 11 8 8 7 7 7 10 12 17 17 16 15 7 8 7 6 6 5 5 4 4 4 3 3 3 3 3 3 3 4 4 4 5 5 7 7
8 11 8 8 8 9 9 9 9 7 7 6 6 4 1 3 6 7 7 7 7 6 5 5 4 4 4 4 3 2 2 2 2 2 3 3 3 3 3 4 5 6 7
8 8 10 8 8 8 10 9 7 6 7 7 7 6 8 7 7 6 6 5 5 4 4 4 4 4 3 3 2 2 1 1 2 2 2 2 3 3 3 4 4 5 6
9 10 9 8 8 9 9 8 7 8 8 8 7 8 12 6 6 6 6 5 4 3 3 3 3 2 2 1 1 1 1 1 1 1 1 1 2 2 3 3 4 5 6
10 11 10 9 8 10 9 8 7 7 8 6 5 5 4 5 5 5 5 3 3 2 2 2 2 1 1 1 1 1 1 0 1 1 1 2 2 2 3 4 4 5 5
11 10 10 8 7 7 7 8 7 8 7 5 5 4 4 4 4 4 3 3 2 2 1 1 2 2 2 2 2 2 2 2 2 3 4 4 4 4 3 3 3 5 6
8 8 9 7 7 7 7 7 6 5 5 4 4 3 3 3 3 2 2 1 1 2 3 3 2 3 4 5 4 5 5 6 6 5 5 6 6 6 4 4 5 5 6
8 9 7 7 7 6 5 5 5 4 4 3 3 2 2 2 1 1 2 3 3 3 4 3 4 6 6 6 8 7 8 9 8 9 7 6 6 5 5 6 7 5 7
Wind_Direction
249 239 232 227 222 220 220 215 213 211 209 202 199 196 193 194 197 201 207 203 205 207 209 211 219 216 223 227 215 215 222 224 239 225 205 143 181 211 206 206 218 209 212
254 246 235 228 222 218 218 215 209 209 209 205 200 195 190 197 191 196 200 197 201 206 212 213 225 220 221 219 213 213 218 220 223 239 188 209 212 219 197 194 212 219 231
259 244 237 230 221 220 217 213 210 204 205 203 197 197 197 197 188 193 195 198 203 210 211 210 217 216 214 211 212 216 215 217 220 215 201 131 152 128 148 159 206 220 233
260 246 237 227 221 221 216 210 208 199 200 199 199 198 199 197 191 193 194 197 203 209 210 214 213 207 207 205 208 211 200 201 187 169 125 151 141 137 155 194 221 210 224
254 242 237 228 221 219 217 207 200 198 196 197 193 195 192 190 185 187 191 193 196 200 201 197 195 190 189 181 179 200 191 185 129 166 148 136 186 190 205 179 227 156 215
251 243 234 226 216 213 211 200 192 193 192 190 187 190 185 189 180 180 184 189 182 174 166 160 141 148 146 150 184 182 179 163 190 161 183 197 213 195 165 165 157 148 249
247 244 235 224 210 202 196 184 176 182 176 180 180 175 171 169 179 174 158 159 151 151 142 145 150 131 136 144 150 192 200 208 187 173 187 205 203 195 161 174 184 189 206
243 244 202 199 180 160 164 162 148 157 165 160 149 137 128 131 143 136 129 129 120 122 127 141 144 146 148 163 170 137 88 98 181 171 195 196 231 182 174 172 174 168 69
236 212 187 168 161 163 167 146 142 129 111 116 132 128 130 133 136 125 119 109 108 102 103 108 123 127 133 142 137 126 107 93 77 89 96 91 112 204 154 121 126 135 242
246 172 186 167 136 126 117 129 103 117 109 104 95 94 106 116 118 125 120 117 115 117 96 97 102 105 111 132 131 136 128 142 120 93 83 79 80 123 152 60 143 139 130
199 138 82 94 107 123 103 112 117 106 107 103 96 87 89 101 105 119 121 121 129 122 118 113 102 116 126 137 143 130 128 135 128 126 133 132 115 124 142 150 131 143 159
146 97 98 89 93 100 105 113 107 113 111 113 108 87 78 84 111 112 113 115 127 123 127 119 124 125 125 126 131 135 123 112 106 124 139 125 132 153 177 191 158 213 212
126 90 98 81 89 91 106 119 112 116 121 123 117 120 104 92 92 113 115 117 115 112 123 131 124 121 116 102 109 121 109 114 125 121 114 98 80 66 79 88 116 79 284
106 97 86 91 79 76 91 110 120 134 134 128 129 125 115 115 122 120 114 116 115 112 124 117 117 106 97 95 86 104 85 79 71 80 72 60 49 51 357 280 289 317 291
120 108 84 80 97 97 79 82 93 65 120 131 127 124 133 137 148 142 134 125 127 130 117 109 100 93 91 92 88 87 79 81 75 58 49 45 347 335 301 266 282 270 272
135 119 112 105 112 108 105 90 77 87 90 95 101 107 91 118 127 126 128 126 130 128 105 109 105 106 109 106 99 100 102 109 111 110 57 325 314 307 310 303 286 282 289
132 133 115 124 128 122 118 112 106 86 89 89 94 94 102 120 122 118 126 127 118 112 107 103 104 102 102 94 86 92 86 46 2 48 33 32 347 320 314 313 311 302 297
116 123 123 125 127 129 121 104 108 113 109 95 82 89 87 107 117 116 110 98 82 68 81 98 100 89 81 85 76 63 57 31 32 14 18 19 13 333 315 307 307 303 302
113 116 112 113 106 110 109 101 101 98 105 107 100 71 77 88 84 78 71 84 101 94 93 95 97 105 101 90 77 68 56 56 32 31 41 22 13 354 337 321 311 305 303
107 112 118 116 115 111 100 102 103 118 114 108 112 114 116 74 69 68 68 81 95 102 106 109 108 99 92 80 76 64 75 54 46 43 35 23 4 340 322 318 313 306 301
105 95 99 97 101 102 97 99 109 121 112 89 74 66 77 92 98 92 89 82 92 103 111 109 106 97 93 98 111 122 134 120 83 60 41 23 356 332 331 314 312 311 313
96 91 86 87 85 87 95 100 107 93 86 88 78 70 74 75 85 91 87 85 78 71 56 83 94 96 85 92 121 149 132 106 92 66 46 350 327 327 320 325 330 330 326
87 95 91 88 93 95 86 84 89 91 92 96 103 99 88 90 92 93 99 98 101 113 97 73 111 163 167 201 217 260 238 211 43 37 317 309 301 301 302 310 318 313 314
80 87 93 88 84 87 84 84 85 88 103 117 123 122 116 116 110 112 119 130 145 146 164 188 218 228 228 245 235 233 273 292 270 249 238 252 257 251 262 282 296 302 304
87 90 83 84 84 88 94 94 101 110 115 119 118 112 114 117 112 127 148 180 215 234 223 217 226 245 257 260 265 263 259 260 250 243 233 234 248 261 263 273 279 286 286
74 79 85 90 91 95 107 116 114 113 115 115 113 110 116 121 141 183 205 227 238 238 242 240 240 241 252 256 252 251 258 260 247 231 238 240 243 246 244 251 261 265 270